Location: Wiler
(46.4041°N, 7.7840°E)
Time: 17:59:06
(UTC+00:00)

IRIDIUM 114 - Pass Details

Date: 09 April 2020
Orbit: 776 x 779 km, 86.4° (Epoch: 01 June)

Event Time Altitude Azimuth Distance (km) Brightness Sun altitude
Rises 18:47:32 0° 355° (N) 3,275 7.9 -7.2°
Reaches altitude 10° 18:49:54 10° 355° (N) 2,343 7.2 -7.6°
Maximum altitude 18:55:09 82° 269° (W) 793 4.5 -8.4°
Drops below altitude 10° 19:00:21 10° 182° (S) 2,324 6.6 -9.3°
Sets 19:02:41 0° 181° (S) 3,247 7.3 -9.6°
